Regional Weather Roundup
Issued by NWS Newport/Morehead, NC

Current Version | Previous Version | Text Only | Print | Product List | Glossary On
Versions: 1 2 3 4 5 6 7 8 9 10 11 12 13 14 15 16 17 18 19 20 21 22 23 24 25 26 27 28 29 30 31 32 33 34 35 36 37 38 39 40 41 42 43 44 45 46 47 48 49 50
000
ASUS42 KMHX 182310
RWRMHX
WEATHER ROUNDUP FOR EASTERN NORTH CAROLINA
NATIONAL WEATHER SERVICE NEWPORT/MOREHEAD CITY NC
700 PM EDT FRI APR 18 2014

NOTE: "FAIR" INDICATES FEW OR NO CLOUDS BELOW 12,000 FEET
WITH NO SIGNIFICANT WEATHER AND/OR OBSTRUCTIONS TO VISIBILITY

NCZ015>017-031-032-045>047-102-103-190000-
NORTH COAST

CITY           SKY/WX    TMP DP  RH WIND       PRES   REMARKS
EDENTON        CLOUDY    51  44  75 NE6       30.30R
ELIZABETH CITY CLOUDY    49  40  71 N13       30.31R
KITTY HAWK     CLOUDY    47  44  89 NE7       30.27F
MANTEO         CLOUDY    47  44  88 NE13      30.27F

$$

NCZ045>047-081-094-103-104-190000-
CENTRAL COAST

CITY           SKY/WX    TMP DP  RH WIND       PRES   REMARKS
FRISCO         CLOUDY    51  48  89 NE13G20   30.25F
SWANQUARTER      N/A     54 N/A N/A NE9       30.21S

$$

NCZ095-097-098-100-101-190000-
SOUTHERN COAST

CITY           SKY/WX    TMP DP  RH WIND       PRES   REMARKS
BEAUFORT       CLOUDY    57  47  69 NE13G21   30.22F
CEDAR ISLAND     N/A     55 N/A N/A NE14G25   30.27F
JACKSONVILLE   CLOUDY    60  47  61 NE12      30.22S
NEWPORT          N/A     57  48  72 NE7G13      N/A
PINEY ISLAND   MOCLDY    58  48  69 NE12G21   30.24R
WILMINGTON     LGT RAIN  59  54  83 NE14      30.20F


$$

NCZ011>013-027>030-043-044-078>080-089-090>093-098-190000-
COASTAL PLAIN

CITY           SKY/WX    TMP DP  RH WIND       PRES   REMARKS
AHOSKIE        CLOUDY    55  41  60 N6        30.30R
CLINTON        CLOUDY    62  49  62 NE3       30.22F
ELIZABETHTOWN  CLOUDY    59  50  71 CALM      30.20F
GOLDSBORO      CLOUDY    62  47  59 NE7       30.22F
GREENVILLE     CLOUDY    61  45  55 E7        30.28R
HAVELOCK       CLOUDY    58  47  66 NE12      30.24F
KENANSVILLE    CLOUDY    61  46  57 NE6       30.23F
KINSTON        CLOUDY    63  46  55 N7        30.26R
NEW BERN       CLOUDY    60  47  61 NE12      30.25S
RICHLANDS      CLOUDY    61  48  63 N12       30.24R
ROANOKE RAPIDS NOT AVBL
ROCKY MOUNT    CLOUDY    59  43  55 N8        30.28R
WASHINGTON     CLOUDY    58  49  70 NE7       30.28R
WHITEVILLE     DRIZZLE   57  53  85 N5        30.18F

$$

AMZ130-135-150-152-154-156-158-170-250-252-270-ANZ085-086-088-633-658-670-190000-
MARINE OBSERVATIONS

STATION/POSITION TIME  TEMP    WIND        PRES    WAVE   SWELL
                       AIR SEA DIR/SP/G            HT/PER HT/PER
                 (UTC) (F)     (DEG/KT/KT) (MB)    (FT/S) (FT/S)
CHESAPEAKE LIGHT 2200   45      60/ 14/ 15 1027.0
BUOY 44014       2300   47 49   10/ 17/ 19 1024.9    7/ 9   7/ 9
DUCK             2300   46 51   20/ 18/ 19 1024.4
2E DUCK          2300      49                N/A     6/10   2/11
OREGON INLET     2300   47 52   10/ 13/ 17 1025.0
BUOY 44095       2300      48                N/A     8/10   3/11
HATTERAS CG      2300   51 56   30/ 14/ 20 1024.5
DIAMOND BUOY     NOT AVBL
CAPE LOOKOUT     2200   56      30/ 22/ 26 1023.3
BEAUFORT LAB     2300   57 59   40/ 11/ 18 1022.9
30 SE NEW RIVER  2300   58 65   50/ 25/ 31 1022.0    7/ 6   3/11
5 SE WRIGHTSVILL 2200   59 59   40/ 14/ 16 1022.7
FRYING PAN BUOY  2300   62 64   60/ 25/ 33 1019.9    9/ 7
BUOY 41001       NOT AVBL
BUOY 41002       NOT AVBL
BUOY 41004       NOT AVBL

$$



USA.gov is the U.S. government's official web portal to all federal, state and local government web resources and services.